Flag for Sweden Weather past 2 weeks in Malmö, Sweden

Now
45 °F

Clear.


Feels Like: 38 °F
Forecast: 45 / 56 °F
Wind: 13 mph from North

Location: Malmo / Sturup

Current Time: Sep 22, 2014 at 10:46:02 PM

Latest Report: Sep 22, 2014 at 10:20 PM


Visibility: 10 mi

Pressure: 29.92 "Hg

Humidity: 81%

Dew point: 39 °F

Location of MalmöLocation

Historic Weather in Malmö — Graph

°F

Malmö temperature yesterday

Maximum temperature yesterday: 63 °F (at 2:20 PM)
Minimum temperature yesterday: 54 °F (at 4:50 AM)
Average temperature yesterday: 58 °F

Past Weeks' High & Low Weather Summary

 TemperatureHumidityPressure
High70 °F (Sep 19, 1:20 PM)100% (Sep 7, 10:50 PM)30.27 "Hg (Sep 7, 10:50 PM)
Low46 °F (Sep 22, 6:20 AM)56% (Sep 8, 2:20 PM)29.65 "Hg (Sep 22, 1:50 AM)
Average59 °F86%30.06 "Hg
* Reported Sep 7 9:20 PM — Sep 22 9:20 PM, Malmö, Weather by CustomWeather, © 2014

Note: Actual official high and low records may vary slightly from our data, if they occured in-between our weather recording intervals... More about our weather records

Advertising

Malmö weather history for previous 24 hours

 ConditionsComfort  
Time TempWeatherWind HumidityBarometerVisibility
9:20 PM
Sep 22
48 °FPassing clouds.15 mph76%29.92 "HgN/A
8:50 PM48 °FPassing clouds.16 mph76%29.89 "HgN/A
8:20 PM48 °FPassing clouds.16 mph76%29.89 "HgN/A
7:50 PM48 °FPartly sunny.16 mph82%29.86 "HgN/A
7:20 PM48 °FBroken clouds.18 mph82%29.86 "HgN/A
6:50 PM50 °FBroken clouds.20 mph71%29.86 "HgN/A
6:20 PM50 °FPartly sunny.17 mph76%29.83 "HgN/A
5:50 PM50 °FPartly sunny.18 mph82%29.80 "HgN/A
5:20 PM52 °FPartly sunny.17 mph72%29.80 "HgN/A
4:50 PM52 °FPartly sunny.22 mph72%29.77 "HgN/A
4:20 PM52 °FPartly sunny.15 mph72%29.77 "HgN/A
3:50 PM52 °FPartly sunny.17 mph77%29.74 "HgN/A
3:20 PM52 °FOvercast.21 mph77%29.74 "HgN/A
2:50 PM52 °FOvercast.21 mph77%29.71 "HgN/A
2:20 PM54 °FMostly cloudy.21 mph72%29.71 "HgN/A
1:50 PM52 °FMostly cloudy.18 mph82%29.71 "HgN/A
1:20 PM52 °FPartly sunny.15 mph77%29.71 "HgN/A
12:50 PM52 °FPartly sunny.18 mph72%29.71 "HgN/A
12:20 PM52 °FPartly sunny.16 mph77%29.71 "HgN/A
11:50 AM50 °FPartly sunny.16 mph76%29.71 "HgN/A
11:20 AM50 °FPartly sunny.17 mph76%29.71 "HgN/A
10:50 AM50 °FPartly sunny.17 mph82%29.68 "HgN/A
10:20 AM50 °FPartly sunny.16 mph82%29.68 "HgN/A
9:50 AM48 °FPartly sunny.16 mph82%29.68 "HgN/A
9:20 AM48 °FPartly sunny.21 mph82%29.68 "HgN/A
8:50 AM48 °FPartly sunny.18 mph82%29.68 "HgN/A
8:20 AM48 °FSunny.15 mph87%29.68 "Hg10 mi
7:50 AM48 °FSunny.13 mph82%29.65 "Hg10 mi
7:20 AM46 °FClear.10 mph87%29.65 "Hg10 mi
6:50 AM46 °FClear.9 mph93%29.65 "Hg10 mi
6:20 AM46 °FPassing clouds.8 mph87%29.65 "HgN/A
5:50 AM48 °FPassing clouds.12 mph87%29.65 "HgN/A
5:20 AM50 °FPartly cloudy.14 mph82%29.65 "HgN/A
4:50 AM50 °FPassing clouds.17 mph88%29.65 "HgN/A
4:20 AM50 °FPassing clouds.14 mph88%29.65 "HgN/A
3:50 AM50 °FClear.13 mph88%29.65 "Hg10 mi
3:20 AM52 °FClear.12 mph88%29.65 "Hg10 mi
2:20 AM54 °FPassing clouds.14 mph88%29.65 "HgN/A
1:50 AM52 °FClear.10 mph88%29.65 "Hg10 mi
1:20 AM52 °FClear.12 mph88%29.68 "Hg10 mi
12:50 AM52 °FClear.14 mph88%29.68 "Hg10 mi
12:20 AM54 °FPassing clouds.18 mph82%29.68 "HgN/A
11:50 PM
Sep 21
55 °FPassing clouds.14 mph82%29.68 "HgN/A
11:20 PM55 °FPartly cloudy.13 mph82%29.68 "HgN/A
10:20 PM55 °FPassing clouds.10 mph82%29.68 "HgN/A
Weather by CustomWeather, © 2014

See weather overviewHow to use our weather pages